Simultaneous Nadir Overpasses (SNOs) Predictions

Prediction of SNOs between NOAA-20 and AQUA Satellite Orbit:

Table of predicted SNOs for the next 14.0 days since TLE Epoch: 11/20/2021
Index Date (NOAA-20) Time (NOAA-20) Lat,Lon (NOAA-20) SZA (NOAA-20 ) Date (AQUA) Time (AQUA) Lat,Lon (AQUA) SZA (AQUA ) Distance(km) Time Diff (sec)
1 11/20/2021 22:12:45 -76.35, -93.05 64.57 11/20/2021 22:13:33 -76.35, -93.15 64.59 2.83 48
2 11/20/2021 23:03:10 77.20, 77.60 114.45 11/20/2021 23:02:41 77.19, 77.51 114.50 2.42 29
3 11/23/2021 14:29:37 -76.41, 22.93 64.04 11/23/2021 14:30:01 -76.41, 22.95 64.07 0.76 24
4 11/23/2021 15:20:02 77.25,-166.41 114.99 11/23/2021 15:19:09 77.25,-166.38 115.03 0.77 53
5 11/26/2021 05:58:58 66.51, -48.03 126.38 11/26/2021 06:00:11 66.34, -46.92 126.01 52.45 73
6 11/26/2021 06:46:19 -76.90, 140.61 64.06 11/26/2021 06:46:20 -76.89, 140.52 64.04 2.39 1
7 11/26/2021 07:34:52 81.06, -16.37 109.10 11/26/2021 07:33:39 81.41, -17.22 109.36 42.31 73
8 11/28/2021 22:12:44 76.06, 85.94 117.43 11/28/2021 22:13:38 76.06, 85.95 117.38 0.14 54
9 11/28/2021 23:03:08 -77.03,-103.06 63.70 11/28/2021 23:02:45 -77.03,-103.08 63.68 0.40 23
10 12/01/2021 14:29:31 76.33,-157.31 117.59 12/01/2021 14:30:01 76.34,-157.27 117.55 1.22 30



Historial Predications of SNOs between NOAA-20 and AQUA
